Weather Roundup
Issued by NWS Corpus Christi, TX

Home | Current Version | Previous Version | Text Only | Print | Product List | Glossary On
Versions: 1 2 3 4 5 6 7 8 9 10 11 12 13 14 15 16 17 18 19 20 21 22 23 24 25 26 27 28 29 30 31 32 33 34 35 36 37 38 39 40 41 42 43 44 45 46 47 48 49 50
203
ASUS44 KCRP 050810
HRRCRP

SOUTH TEXAS REGIONAL WEATHER ROUNDUP
NATIONAL WEATHER SERVICE CORPUS CHRISTI TX
200 AM CST MON DEC 05 2016


TXZ229>244-050900-
...CORPUS CHRISTI AREA OBSERVATIONS...

CITY           SKY/WX    TMP DP  RH WIND       PRES   REMARKS
CORPUS CHRISTI DRIZZLE   52  52 100 N14       29.87F FOG
NAS CORPUS CHR CLOUDY    51  32  48 N20       29.85F
ROCKPORT         N/A    N/A N/A N/A MISG      29.87F
KINGSVILLE NAS LGT RAIN  52  52 100 NW9       29.92R FOG
ALICE          LGT RAIN  51  50  96 MISG      29.92R
ORANGE GROVE   TSTM      51  51 100 N9        29.89F FOG
FALFURRIAS     CLOUDY    52  51  95 N8        29.91F
$$

...VICTORIA AREA OBSERVATIONS...

CITY           SKY/WX    TMP DP  RH WIND       PRES   REMARKS
VICTORIA       CLOUDY    50  49  96 NE16G24   29.87F
BEEVILLE       CLOUDY    46  46 100 NE8       29.89F
PLEASANTON     HVY RAIN  49  48  95 NW3       29.93S
SAN ANTONIO    LGT RAIN  48  46  93 N13       29.91F
$$

...LAREDO AREA OBSERVATIONS...

CITY           SKY/WX    TMP DP  RH WIND       PRES   REMARKS
LAREDO         LGT RAIN  52  51  97 N9        29.96F
COTULLA        LGT RAIN  52  49  89 N7        29.95F
DEL RIO        HVY RAIN  48  48 100 W10       29.99R FOG
MCALLEN        CLOUDY    56  52  86 NW10G18   29.92S
HEBBRONVILLE   HVY RAIN  49  48  97 NW9       29.95R
$$

...OTHER TEXAS OBSERVATIONS...

CITY           SKY/WX    TMP DP  RH WIND       PRES   REMARKS
BROWNSVILLE    CLOUDY    55  53  93 NW17G31   29.86F
HOUSTON        RAIN      50  48  93 N13       29.92F FOG
COL. STATION   RAIN      49  48  97 NE8       29.97R
AUSTIN         LGT RAIN  50  47  89 N15       29.94F
WACO           CLOUDY    48  46  93 NE8       30.01S
FORT WORTH     CLOUDY    48  42  80 N6        30.01S
WICHITA FALLS  MOCLDY    36  35  96 SW6       30.02F
LUBBOCK        CLOUDY    34  30  85 W5        29.98F
EL PASO        CLEAR     40  34  79 SE5       30.02F
$$

...MARINE OBSERVATIONS...

STATION/POSITION TIME  SKY/WX   TEMP    WIND        PRES    VSBY  WAVE   SWELL
                                AIR SEA DIR/SP/G                  HT/PER HT/PER
                 (UTC)          (F)     (DEG/KT/KT) (MB)    (MI)  (FT/S) (FT/S)
PORT ARANSAS     0800            53 65  360/ 18/ 24 1010.1F
BUOY 90 E PORT A 0750            69 76   10/ 25/ 31 1005.5F         9/ 7
BUOY 45 SE BAFFI 0750            65 76  350/ 23/ 27 1007.7R         9/ 7
BUOY 200 E PT IS 0650            79 79  150/ 17/ 21 1008.1          8/ 8
BUOY 15 E GALVES 0750            58 68   30/ 21/ 25 1010.7F         5/ 5
$$




USA.gov is the U.S. government's official web portal to all federal, state and local government web resources and services.